Погода в Виктории

Канада     48°25′23″N   123°22′00″W
темп.,
°C
ветер,
м/с
пор.,
м/с
влажн.,
%
обл.,
%
осадки,
мм/ч
давл.,
гПа
погр.,
м
17 апреля, сб
сб1723:00+11ссз11741 0.0 102210
02:00+11ссз22720 0.0 102211
05:00+10с22740 0.0 102215
08:00+11с35735 0.0 102396
11:00+14ссв35650 0.0 1023178
14:00+15ссв34595 0.0 1023196
17:00+15ссв23595 0.0 1022126
20:00+13з11700 0.0 102111
18 апреля, вс
вс1823:00+12сз00730 0.0 102110
02:00+11в00785 0.0 102110
05:00+10с118098 0.0 102110
08:00+11ссв117496 0.0 102246
11:00+14св126299 0.0 1021228
14:00+15всв11605 0.0 1021339
17:00+14ю23635 0.0 1019187
20:00+13зюз13680 0.0 101820
19 апреля, пн
пн1923:00+11сз22745 0.0 102011
02:00+11с237734 0.0 102266
05:00+9всв228732 0.0 102328
08:00+10св12786 0.0 102478
11:00+13всв236457 0.0 1025291
14:00+14св3358100 0.0 1024380
17:00+14с1158100 0.0 1022329
20:00+12юз3373100 0.0 102124
20 апреля, вт
вт2023:00+11з2278100 0.0 102123
02:00+10сз2278100 0.0 102114
05:00+10ссз228198 0.0 102112
08:00+11с237749 0.0 102188
11:00+12ссв33685 0.0 1021293
14:00+13с126619 0.0 1019384
17:00+13юз22681 0.0 1017356
20:00+11юз22800 0.0 101725
21 апреля, ср
ср2123:00+10з22840 0.0 101627
02:00+10сз11854 0.0 101614
05:00+9сз22885 0.0 101714
08:00+11ссз22805 0.0 101890
11:00+12ссв22725 0.0 1018311
14:00+13юв127228 0.0 1017383
17:00+12ю237229 0.0 1016230
20:00+11з23800 0.0 101528